Location: Erfurt
(50.9688°N, 11.0193°E)
Time: 15:29:31
(UTC+01:00)

ISS - Pass Details

Date: 04 January 2018
Orbit: 402 x 407 km, 51.6° (Epoch: 21 January)

Event Time Altitude Azimuth Distance (km) Brightness Sun altitude
Exits shadow 05:20:34 23° 87° (E) 909 -1.4 -26.8°
Drops below altitude 10° 05:22:01 10° 79° (E) 1,471 -0.1 -26.6°
Sets 05:24:08 0° 76° (ENE) 2,335 1.2 -26.2°
